This is the latest recevied weather packets stored in our database for station/object PD2BVG. If no packets are shown the sender has not sent any weather packets the latest 10 day(s).
| Time | Temp. | Humidity | Pressure | Rain* | Wind** | Luminosity | Snow |
|---|---|---|---|---|---|---|---|
| 1787582805 | 21.67° C | 56% | 1018.8 hPa | 0 mm | - | 475 W/m² | - |
| 1787582748 | 21.67° C | 56% | 1018.8 hPa | 0 mm | - | 529 W/m² | - |
| 1787582685 | 21.67° C | 56% | 1018.7 hPa | 0 mm | - | 531 W/m² | - |
| 1787582628 | 21.67° C | 56% | 1018.8 hPa | 0 mm | - | 531 W/m² | - |
| 1787582565 | 21.67° C | 56% | 1018.8 hPa | 0 mm | - | 531 W/m² | - |
| 1787582505 | 21.67° C | 56% | 1018.9 hPa | 0 mm | - | 535 W/m² | - |
| 1787582446 | 21.67° C | 56% | 1018.9 hPa | 0 mm | - | 535 W/m² | - |
| 1787582385 | 21.67° C | 56% | 1018.9 hPa | 0 mm | - | 536 W/m² | - |
| 1787582327 | 21.67° C | 56% | 1018.8 hPa | 0 mm | - | 543 W/m² | - |
| 1787582266 | 21.67° C | 56% | 1018.9 hPa | 0 mm | - | 543 W/m² | - |
| 1787582206 | 21.11° C | 56% | 1018.9 hPa | 0 mm | - | 543 W/m² | - |
| 1787582137 | 21.11° C | 56% | 1019 hPa | 0 mm | - | 549 W/m² | - |
| 1787582077 | 21.67° C | 56% | 1018.9 hPa | 0 mm | - | 549 W/m² | - |
| 1787582014 | 21.67° C | 56% | 1019 hPa | 0 mm | - | 556 W/m² | - |
| 1787581950 | 21.67° C | 56% | 1018.9 hPa | 0 mm | - | 556 W/m² | - |
| 1787581890 | 21.67° C | 56% | 1019 hPa | 0 mm | - | 556 W/m² | - |
| 1787581829 | 21.67° C | 56% | 1019 hPa | 0 mm | - | 563 W/m² | - |
| 1787581770 | 21.67° C | 56% | 1019 hPa | 0 mm | - | 565 W/m² | - |
| 1787581713 | 21.67° C | 56% | 1019 hPa | 0 mm | - | 572 W/m² | - |
| 1787581651 | 21.67° C | 56% | 1018.9 hPa | 0 mm | - | 572 W/m² | - |
| 1787581590 | 21.67° C | 56% | 1019.1 hPa | 0 mm | - | 572 W/m² | - |
| 1787581529 | 21.67° C | 56% | 1019.1 hPa | 0 mm | - | 572 W/m² | - |
| 1787581470 | 21.67° C | 56% | 1019.1 hPa | 0 mm | - | 572 W/m² | - |
| 1787581410 | 21.67° C | 56% | 1019.1 hPa | 0 mm | - | 575 W/m² | - |
| 1787581349 | 21.67° C | 56% | 1019.3 hPa | 0 mm | - | 575 W/m² | - |
* Rain latest hour (hover to see other rain measurements)
** Current wind speed in m/s (hover to see current wind gust speed)